Le nostre stazioni meteo in Italia

Pubblicità
Il mio iltempo24.it
Fyvie castle, Gran Bretagna (99010): Temperatura & dewpoint: 17.08.2017 08:00:00 - 23.08.2017 08:00:00 (BST)Fyvie castle, Gran Bretagna (99010): visibility: 17.08.2017 08:00:00 - 23.08.2017 08:00:00 (BST)Fyvie castle, Gran Bretagna (99010): precipitazioni: 17.08.2017 08:00:00 - 23.08.2017 08:00:00 (BST)
Data & Tempo tt [°C] td [°C] vv [km] rr [mm]
23.08.2017 08:00:00 14,9 14,2 - 0,0
23.08.2017 07:00:00 14,8 14,1 - 0,0
23.08.2017 06:00:00 14,8 14,2 - 0,0
23.08.2017 05:00:00 14,9 14,3 - 0,2
23.08.2017 04:00:00 14,9 14,5 - 0,0
23.08.2017 03:00:00 14,8 14,4 - 0,2
23.08.2017 02:00:00 14,7 14,4 - 0,0
23.08.2017 01:00:00 14,8 14,4 - 0,2
23.08.2017 00:00:00 14,8 14,5 - 0,2
22.08.2017 23:00:00 14,7 14,5 - 0,2
22.08.2017 22:00:00 14,6 14,3 - 0,2
22.08.2017 21:00:00 14,6 14,3 - 0,0
22.08.2017 20:00:00 14,7 14,2 - 0,0
22.08.2017 19:00:00 14,8 14,1 - 0,0
22.08.2017 18:00:00 15,2 14,3 - 0,0
22.08.2017 17:00:00 14,8 14,4 - 0,2
22.08.2017 16:00:00 14,9 14,2 - 0,0
22.08.2017 15:00:00 15,2 14,4 - 0,0
22.08.2017 14:00:00 14,9 14,1 - 0,0
22.08.2017 13:00:00 14,9 14,2 - 0,2
22.08.2017 12:00:00 14,5 13,9 - 0,0
22.08.2017 11:00:00 14,5 13,6 - 0,0
22.08.2017 10:00:00 14,3 13,5 - 0,0
22.08.2017 09:00:00 14,1 13,4 - 0,0
22.08.2017 08:00:00 13,8 13,2 - 0,0
22.08.2017 07:00:00 13,5 13,0 - 0,0
22.08.2017 06:00:00 13,3 12,9 - 0,2
22.08.2017 05:00:00 13,4 12,9 - 0,6
22.08.2017 04:00:00 13,7 13,1 - 0,0
22.08.2017 03:00:00 13,8 13,1 - 0,0
22.08.2017 02:00:00 13,8 13,0 - 0,0
22.08.2017 01:00:00 13,5 12,9 - 0,0
22.08.2017 00:00:00 13,3 12,9 - 0,0
21.08.2017 23:00:00 12,5 12,0 - 0,0
21.08.2017 22:00:00 12,5 11,6 - 0,0
21.08.2017 21:00:00 13,3 12,1 - 0,0
21.08.2017 20:00:00 13,9 11,7 - 0,0
21.08.2017 19:00:00 15,0 12,1 - 0,0
21.08.2017 18:00:00 15,7 12,0 - 0,0
21.08.2017 17:00:00 16,6 12,6 - 0,0
21.08.2017 16:00:00 16,7 11,8 - 0,0
21.08.2017 15:00:00 17,2 11,2 - 0,0
21.08.2017 14:00:00 16,9 11,8 - 0,0
21.08.2017 13:00:00 17,9 12,1 - 0,0
21.08.2017 12:00:00 16,3 11,7 - 0,0
21.08.2017 11:00:00 16,4 12,3 - 0,0
21.08.2017 10:00:00 14,5 11,7 - 0,0
21.08.2017 09:00:00 13,3 12,7 - 0,0
21.08.2017 08:00:00 10,7 10,6 - 0,0
21.08.2017 07:00:00 10,3 10,1 - 0,0
21.08.2017 06:00:00 10,2 10,1 - 0,0
21.08.2017 05:00:00 9,9 9,6 - 0,0
21.08.2017 04:00:00 10,6 10,0 - 0,0
21.08.2017 03:00:00 11,1 10,6 - 0,0
21.08.2017 02:00:00 11,0 10,6 - 0,0
21.08.2017 01:00:00 10,7 10,2 - 0,0
21.08.2017 00:00:00 10,4 9,8 - 0,0
20.08.2017 23:00:00 11,0 9,9 - 0,0
20.08.2017 22:00:00 11,0 10,0 - 0,0
20.08.2017 21:00:00 12,1 9,8 - 0,0
20.08.2017 20:00:00 14,0 10,3 - 0,0
20.08.2017 19:00:00 14,7 10,3 - 0,0
20.08.2017 18:00:00 15,0 10,4 - 0,0
20.08.2017 17:00:00 16,3 10,6 - 0,0
20.08.2017 16:00:00 15,9 10,2 - 0,0
20.08.2017 15:00:00 15,9 10,9 - 0,2
20.08.2017 14:00:00 15,6 10,2 - 0,0
20.08.2017 13:00:00 16,2 10,5 - 0,0
20.08.2017 12:00:00 15,8 10,9 - 0,0
20.08.2017 11:00:00 15,1 10,4 - 0,0
20.08.2017 10:00:00 13,9 10,6 - 0,0
20.08.2017 09:00:00 13,1 10,9 - 0,0
20.08.2017 08:00:00 12,4 10,5 - 0,0
20.08.2017 07:00:00 12,1 10,9 - 0,0
20.08.2017 06:00:00 12,0 10,7 - 0,0
20.08.2017 05:00:00 12,2 11,0 - 0,0
20.08.2017 04:00:00 11,9 10,9 - 0,2
20.08.2017 03:00:00 11,7 10,9 - 0,8
20.08.2017 02:00:00 12,5 10,7 - 0,2
20.08.2017 01:00:00 12,8 11,2 - 0,0
20.08.2017 00:00:00 12,9 11,2 - 0,0
19.08.2017 23:00:00 12,7 11,3 - 0,4
19.08.2017 22:00:00 12,9 11,5 - 0,4
19.08.2017 21:00:00 13,4 11,1 - 0,0
19.08.2017 20:00:00 14,5 10,7 - 0,0
19.08.2017 19:00:00 15,4 11,5 - 0,0
19.08.2017 18:00:00 15,9 10,4 - 0,0
19.08.2017 17:00:00 16,6 11,3 - 0,0
19.08.2017 16:00:00 16,4 14,0 - 0,6
19.08.2017 15:00:00 18,0 11,9 - 0,2
19.08.2017 14:00:00 17,2 10,8 - 0,0
19.08.2017 13:00:00 15,7 11,6 - 0,6
19.08.2017 12:00:00 16,1 9,9 - 0,0
19.08.2017 11:00:00 15,6 9,7 - 0,0
19.08.2017 10:00:00 14,8 8,8 - 0,0
19.08.2017 09:00:00 13,4 8,8 - 0,0
19.08.2017 08:00:00 12,8 8,6 - 0,0
19.08.2017 07:00:00 10,5 8,2 - 0,0
19.08.2017 06:00:00 10,3 8,3 - 0,0
19.08.2017 05:00:00 11,2 9,0 - 0,0
19.08.2017 04:00:00 11,8 10,0 - 0,2
19.08.2017 03:00:00 11,9 10,7 - 0,0
19.08.2017 02:00:00 11,3 10,1 - 0,0
19.08.2017 01:00:00 11,5 9,8 - 0,0
19.08.2017 00:00:00 11,3 10,0 - 0,0
18.08.2017 23:00:00 10,8 10,0 - 0,0
18.08.2017 22:00:00 11,9 10,8 - 0,2
18.08.2017 21:00:00 11,9 11,1 - 0,2
18.08.2017 20:00:00 12,1 11,1 - 1,2
18.08.2017 19:00:00 11,7 11,2 - 2,6
18.08.2017 18:00:00 11,6 10,9 - 2,0
18.08.2017 17:00:00 11,5 11,0 - 3,0
18.08.2017 16:00:00 11,2 10,7 - 2,0
18.08.2017 15:00:00 11,0 10,5 - 5,8
18.08.2017 14:00:00 11,2 10,2 - 3,4
18.08.2017 13:00:00 11,5 10,4 - 4,4
18.08.2017 12:00:00 11,8 10,8 - 3,6
18.08.2017 11:00:00 12,9 12,4 - 2,8
18.08.2017 10:00:00 12,9 12,3 - 1,0
18.08.2017 09:00:00 13,2 12,4 - 2,2
18.08.2017 08:00:00 13,5 12,7 - 0,4
18.08.2017 07:00:00 13,4 12,7 - 0,0
18.08.2017 06:00:00 11,6 11,1 - 0,0
18.08.2017 05:00:00 11,7 10,9 - 0,0
18.08.2017 04:00:00 12,7 11,3 - 0,0
18.08.2017 03:00:00 12,3 11,0 - 0,0
18.08.2017 02:00:00 13,3 11,7 - 0,0
18.08.2017 01:00:00 13,3 12,1 - 0,4
18.08.2017 00:00:00 14,2 12,0 - 0,0
17.08.2017 23:00:00 13,3 11,5 - 0,0
17.08.2017 22:00:00 14,2 11,3 - 0,0
17.08.2017 21:00:00 16,3 11,7 - 0,0
17.08.2017 20:00:00 17,9 11,4 - 0,0
17.08.2017 19:00:00 18,7 10,4 - 0,0
17.08.2017 18:00:00 19,9 11,1 - 0,0
17.08.2017 17:00:00 19,6 10,7 - 0,0
17.08.2017 16:00:00 21,5 10,2 - 0,0
17.08.2017 15:00:00 20,8 11,4 - 0,0
17.08.2017 14:00:00 21,3 11,2 - 0,0
17.08.2017 13:00:00 21,2 10,4 - 0,0
17.08.2017 12:00:00 19,7 9,7 - 0,0
17.08.2017 11:00:00 18,5 8,8 - 0,0
17.08.2017 10:00:00 17,3 9,5 10 0,0
17.08.2017 09:00:00 15,3 10,2 - 0,0
17.08.2017 08:00:00 12,7 12,4 - 0,0

tt = Temperatura
td = dewpoint
vv = visibility
rr = precipitazioni

Stazioni seguenti

WeatherPro
AMSI
MeteoEarth